Home > Weather > Kristiansund > Past weeks

Flag for Norway Past Weather in Kristiansund, Norway — Yesterday and Last 2 Weeks

Now
57 °F

Passing clouds.


Feels Like: 55 °F
Forecast: 54 / 65 °F
Wind: 8 mph from East

Location: Kristiansund / Kvernberget

Current Time: Jun 28, 2016 at 10:04:30 AM

Latest Report: Jun 28, 2016 at 9:20 AM


Visibility: N/A

Pressure: 29.80 "Hg

Humidity: 67%

Dew Point: 46 °F

Location of KristiansundLocation

Past Weather in Kristiansund — Graph

°F

Kristiansund Temperature Yesterday

Maximum temperature yesterday: 59 °F (at 2:20 AM)
Minimum temperature yesterday: 52 °F (at 8:50 AM)
Average temperature yesterday: 54 °F

High & Low Weather Summary for the Past Weeks

 TemperatureHumidityPressure
High68 °F (Jun 20, 7:20 PM)100% (Jun 17, 9:50 PM)30.12 "Hg (Jun 17, 9:50 PM)
Low43 °F (Jun 19, 11:50 PM)37% (Jun 20, 1:20 PM)29.56 "Hg (Jun 20, 7:20 PM)
Average54 °F78%29.85 "Hg
* Reported Jun 13 8:20 AM — Jun 28 8:50 AM, Kristiansund, Weather by CustomWeather, © 2016

Note: Actual official high and low records may vary slightly from our data, if they occured in-between our weather recording intervals... More about our weather records

Advertising

Kristiansund Weather History for the Previous 24 Hours

Scroll right to see more
 ConditionsComfort  
Time TempWeatherWind HumidityBarometerVisibility
8:50 AM
Tue, Jun 28
57 °FPassing clouds.7 mph72%29.77 "HgN/A
8:20 AM55 °FPassing clouds.6 mph82%29.77 "HgN/A
7:50 AM55 °FPassing clouds.3 mph77%29.77 "HgN/A
7:20 AM54 °FScattered clouds.2 mph82%29.77 "HgN/A
6:50 AM52 °FScattered clouds.2 mph88%29.77 "HgN/A
6:20 AM52 °FScattered clouds.No wind88%29.77 "HgN/A
5:50 AM50 °FOvercast.3 mph94%29.77 "HgN/A
5:20 AM52 °FOvercast.6 mph82%29.77 "HgN/A
4:50 AM50 °FOvercast.5 mph88%29.77 "HgN/A
4:20 AM50 °FMostly cloudy.12 mph88%29.77 "HgN/A
3:50 AM50 °FMostly cloudy.16 mph88%29.74 "HgN/A
3:20 AM52 °FOvercast.14 mph82%29.74 "HgN/A
2:50 AM52 °FOvercast.16 mph88%29.74 "HgN/A
2:20 AM52 °FOvercast.20 mph88%29.74 "HgN/A
1:50 AM52 °FMostly cloudy.17 mph88%29.71 "HgN/A
1:20 AM52 °FMostly cloudy.20 mph88%29.71 "HgN/A
12:50 AM52 °FPassing clouds.16 mph88%29.71 "HgN/A
12:20 AM52 °FBroken clouds.14 mph94%29.71 "HgN/A
11:50 PM
Mon, Jun 27
52 °FLight rain. Broken clouds.3 mph94%29.68 "HgN/A
11:20 PM54 °FDrizzle. Broken clouds.3 mph88%29.68 "HgN/A
10:50 PM54 °FPartly sunny.2 mph88%29.65 "HgN/A
10:20 PM54 °FPartly sunny.2 mph82%29.65 "HgN/A
9:50 PM54 °FPartly sunny.5 mph88%29.62 "HgN/A
9:20 PM54 °FPartly sunny.5 mph88%29.62 "HgN/A
8:50 PM54 °FBroken clouds.6 mph88%29.62 "HgN/A
8:20 PM54 °FBroken clouds.5 mph88%29.62 "HgN/A
7:50 PM55 °FBroken clouds.7 mph82%29.62 "HgN/A
7:20 PM54 °FBroken clouds.5 mph88%29.62 "HgN/A
6:50 PM54 °FBroken clouds.3 mph88%29.62 "HgN/A
6:20 PM54 °FBroken clouds.3 mph82%29.62 "HgN/A
5:50 PM55 °FBroken clouds.2 mph82%29.62 "HgN/A
5:20 PM55 °FBroken clouds.3 mph88%29.62 "HgN/A
4:50 PM54 °FLight rain. Broken clouds.3 mph88%29.62 "HgN/A
4:20 PM54 °FBroken clouds.8 mph88%29.62 "HgN/A
3:50 PM54 °FBroken clouds.9 mph88%29.62 "HgN/A
3:20 PM54 °FPartly sunny.12 mph88%29.62 "HgN/A
2:50 PM54 °FBroken clouds.17 mph94%29.62 "HgN/A
2:20 PM52 °FLight rain. Broken clouds.13 mph94%29.62 "HgN/A
1:50 PM52 °FRain. Broken clouds.12 mph94%29.62 "Hg3 mi
1:20 PM52 °FDrizzle. Broken clouds.13 mph94%29.62 "HgN/A
12:50 PM52 °FDrizzle. Broken clouds.10 mph94%29.62 "HgN/A
12:20 PM52 °FDrizzle. Broken clouds.10 mph94%29.62 "HgN/A
11:50 AM52 °FDrizzle. Fog.12 mph94%29.59 "HgN/A
11:20 AM52 °FDrizzle. Light fog.15 mph94%29.59 "Hg5 mi
10:50 AM52 °FDrizzle. Fog.14 mph94%29.59 "Hg3 mi
10:20 AM52 °FDrizzle. Fog.12 mph94%29.59 "Hg4 mi
Weather by CustomWeather, © 2016

See weather overviewHow to use our weather pages